Theta_e
313 314 323 327 329 329 331 332 334 336 337 335 333 332 333 334 334 335 335 334 331 331 330 329 329 330 329 331 331 330 329 329 329 328 322 321 321 320 319 318 318 321 321
306 307 309 321 325 330 331 331 334 334 335 335 335 334 333 332 334 335 335 334 333 334 333 333 332 334 333 333 332 332 330 329 329 323 321 312 314 315 315 315 315 315 315
304 306 303 310 316 323 327 331 331 333 333 335 333 329 330 329 328 329 330 331 333 332 331 331 331 331 331 330 330 329 328 325 322 321 319 313 307 309 315 315 314 314 312
303 304 305 303 305 311 324 328 331 331 332 330 330 328 327 325 327 326 324 325 326 325 324 324 323 321 321 320 320 320 319 318 316 315 317 316 316 311 309 312 312 313 312
302 304 305 305 306 305 308 322 325 327 329 329 331 329 326 326 324 323 322 318 318 318 317 316 316 316 317 315 316 315 313 313 313 313 312 311 311 314 311 305 307 308 306
301 302 304 305 304 303 306 314 320 323 322 325 326 326 325 321 320 320 319 317 315 313 313 313 312 312 309 309 308 308 309 310 310 311 311 311 309 307 306 306 311 310 305
299 300 300 301 303 303 306 309 314 317 316 316 321 322 321 319 320 319 317 314 313 312 311 311 309 306 306 306 306 306 307 307 308 309 309 310 309 312 311 311 309 308 303
296 297 299 300 300 302 305 308 309 310 313 312 313 314 316 316 316 316 315 314 313 309 305 304 304 304 303 303 303 303 304 306 306 307 307 307 307 307 308 309 311 307 306
295 296 299 298 300 301 304 306 307 307 308 309 309 310 312 311 311 311 311 309 306 304 302 301 301 300 300 300 300 300 301 303 303 304 304 304 305 304 305 307 309 308 304
294 295 298 298 299 301 303 304 305 305 306 307 306 306 306 308 307 305 302 302 301 301 300 300 299 298 298 298 298 298 299 300 301 302 300 301 301 302 301 303 305 306 305
294 294 296 299 300 302 303 303 304 304 304 304 303 302 302 302 303 304 303 301 300 299 299 298 298 298 297 297 296 296 297 297 298 299 299 299 301 298 298 299 303 302 302
295 295 295 297 299 300 301 302 303 303 303 302 302 300 300 301 301 299 301 301 300 299 299 298 297 296 296 295 294 294 295 295 295 297 296 296 299 297 296 298 298 297 298
296 296 296 297 298 298 299 300 301 302 301 300 300 299 299 298 297 296 296 298 297 296 296 296 295 294 293 293 292 292 292 292 292 293 295 297 297 296 296 296 295 296 296
295 295 295 296 298 298 299 300 300 300 300 299 298 298 298 298 296 296 297 296 296 295 295 294 294 292 292 292 292 292 291 291 291 292 294 295 295 295 294 293 293 294 294
293 295 296 296 296 297 298 299 299 299 298 297 297 297 297 298 298 297 296 295 295 294 292 291 291 291 292 293 291 293 293 293 292 292 292 293 294 295 294 292 290 291 292
294 294 296 296 297 297 298 298 298 298 297 296 296 296 295 295 294 293 292 292 291 291 291 291 291 290 293 295 297 296 293 293 291 289 289 289 290 293 294 293 292 289 289
294 294 294 294 295 297 299 298 297 297 296 296 295 295 294 293 292 292 291 290 289 289 289 289 289 289 290 296 297 297 292 290 289 287 286 286 287 286 285 291 291 291 291
294 294 294 294 295 296 298 299 297 297 296 295 295 294 294 293 291 290 290 288 288 288 288 288 289 288 291 295 296 295 287 286 286 285 284 281 280 282 283 282 281 281 282
294 294 294 294 294 295 297 297 296 296 296 295 295 294 294 292 291 289 288 287 287 286 287 287 287 287 290 294 295 290 287 286 285 284 282 281 280 285 288 282 281 281 282
294 293 293 293 294 296 296 296 296 295 295 296 295 295 294 293 291 290 288 287 287 286 287 286 287 290 289 293 294 289 283 282 282 281 281 289 284 289 288 281 280 279 280
294 294 294 292 293 293 294 295 295 295 298 296 295 294 294 293 292 289 287 287 285 288 288 288 289 288 289 288 293 291 281 281 280 280 280 282 290 290 289 285 280 280 282
294 294 293 292 293 293 293 294 294 296 295 296 295 293 292 293 291 289 287 286 287 288 288 287 287 286 287 290 291 292 289 285 280 279 279 281 289 290 289 286 285 287 284
293 293 292 292 293 293 293 293 293 294 295 296 295 294 293 293 291 289 287 287 288 288 287 286 286 285 285 285 291 291 292 290 281 280 282 285 287 289 287 288 287 287 281
294 293 292 291 291 292 293 294 293 294 295 295 294 293 293 291 290 289 288 287 286 287 287 286 285 285 284 284 283 283 286 291 287 285 282 284 285 287 284 284 284 281 281
297 293 292 292 292 292 292 292 295 295 295 294 294 293 292 291 290 290 289 289 290 290 288 287 286 285 284 285 286 284 283 283 284 282 280 281 281 280 279 279 279 279 280
297 294 294 293 293 293 294 294 294 295 294 292 292 291 291 290 290 289 288 292 292 292 293 292 289 287 290 290 290 290 290 290 291 284 279 279 280 280 279 278 278 278 279
Wind_Speed
3 6 7 6 6 8 7 9 11 14 12 9 6 4 7 4 3 5 9 9 5 6 6 4 4 4 4 4 4 2 4 3 3 2 3 2 4 5 4 4 4 4 0
5 4 2 3 8 8 11 10 13 12 11 8 6 4 4 2 2 3 4 6 7 7 6 5 4 4 4 5 4 4 1 1 2 2 0 4 4 3 3 3 4 5 4
7 6 4 5 4 5 7 10 9 10 10 13 4 1 1 3 2 3 3 2 4 3 3 1 2 2 1 2 2 2 2 2 2 2 2 2 3 2 2 3 4 5 4
6 6 6 5 8 10 4 7 9 11 9 7 6 7 5 5 4 4 3 6 9 8 9 6 2 2 1 3 3 2 2 1 3 2 2 2 3 2 3 2 3 5 5
9 9 9 9 9 7 7 5 6 6 6 7 8 7 6 4 3 1 4 3 5 6 4 8 6 4 2 3 3 3 2 1 2 2 1 1 2 2 3 3 1 3 4
9 9 7 6 7 4 5 5 6 5 4 6 6 7 7 4 3 2 4 1 1 3 5 6 4 2 2 4 3 3 2 1 2 2 2 3 2 2 3 3 5 2 2
6 7 8 8 7 7 8 5 6 6 3 3 5 6 6 5 5 4 4 4 2 2 4 3 2 1 4 3 3 3 1 1 2 3 3 2 2 1 2 1 3 4 2
4 6 8 8 8 9 7 7 8 5 6 4 2 2 4 5 5 7 7 4 2 2 3 6 4 4 4 4 3 2 2 2 2 4 3 1 2 2 2 2 1 3 3
4 5 7 7 8 7 8 8 6 6 5 5 5 4 4 4 5 5 8 6 6 2 4 5 5 4 4 2 3 2 3 2 2 2 2 1 1 1 2 2 2 3 3
6 6 6 5 3 3 3 5 4 5 5 5 5 5 6 6 6 10 9 8 7 5 4 4 3 3 3 3 2 1 1 2 2 2 2 2 1 1 1 1 1 1 2
4 5 5 3 1 3 5 5 5 6 5 5 4 6 5 4 4 9 11 11 10 8 6 5 2 1 2 3 1 3 3 3 4 3 2 0 2 2 2 2 1 0 1
4 5 6 5 3 1 2 4 5 6 6 6 5 6 6 3 2 2 7 8 8 5 6 6 5 3 3 3 2 3 3 2 2 4 2 1 1 1 2 2 1 1 1
7 6 6 6 3 1 2 4 5 5 6 6 7 5 4 5 4 3 6 6 5 4 6 5 5 4 2 1 1 1 2 1 1 1 1 1 2 0 1 1 1 0 0
6 5 6 6 5 3 4 5 5 6 6 7 7 7 6 7 5 5 5 6 4 6 3 4 5 4 2 0 1 2 2 2 1 2 2 2 2 1 2 1 1 0 1
8 7 6 5 5 5 6 5 5 6 6 7 7 7 7 6 6 5 6 5 5 3 5 4 4 3 3 3 3 3 3 2 2 2 3 3 3 2 1 1 1 1 1
6 6 6 7 7 7 7 6 7 8 7 7 7 6 6 6 6 6 6 6 4 4 4 4 4 4 2 4 5 4 2 3 3 3 3 3 5 3 3 2 2 3 4
7 7 7 6 6 7 8 9 8 7 7 7 7 7 7 7 7 7 7 6 6 4 4 4 4 4 4 4 5 4 2 3 3 4 3 2 2 4 4 7 9 8 5
6 8 6 6 7 6 7 7 8 9 9 8 7 7 7 7 7 7 6 5 4 5 5 5 5 4 3 3 2 6 4 3 2 3 3 3 2 3 3 4 4 4 4
7 7 6 8 7 8 7 7 7 9 9 10 9 9 9 8 8 7 7 4 5 4 4 3 4 4 3 5 6 5 3 3 3 3 3 4 4 6 7 4 4 4 3
7 7 7 7 7 9 5 7 9 10 11 12 11 9 10 10 10 8 8 5 4 4 3 2 4 6 4 6 8 5 2 3 3 2 3 8 6 6 6 4 4 4 3
8 6 6 7 7 7 5 8 7 12 13 9 9 9 9 10 9 8 5 5 4 4 3 4 3 4 5 5 9 9 4 4 3 3 3 3 9 7 6 6 4 4 5
8 7 6 6 7 6 5 8 10 7 7 10 10 9 9 7 7 9 6 5 5 5 4 4 3 3 4 8 10 12 11 8 4 4 4 4 8 8 7 5 6 6 6
7 6 6 6 6 6 5 6 5 7 9 9 9 9 9 8 8 9 7 5 5 4 4 4 4 4 3 3 11 12 13 12 4 3 6 9 9 9 6 8 7 6 4
11 5 6 6 6 5 4 4 6 6 9 9 8 7 8 7 6 5 6 5 5 4 4 5 5 4 3 4 4 4 4 11 7 6 4 6 7 7 5 4 4 3 4
14 6 6 6 6 2 2 2 5 6 7 8 7 6 5 6 6 5 6 6 5 7 6 6 5 4 4 6 10 9 5 4 6 5 2 2 2 3 3 3 3 3 3
14 8 7 5 5 2 1 1 4 5 7 6 5 5 5 5 4 5 3 8 8 12 13 10 7 4 9 7 12 16 15 14 14 4 3 4 4 5 5 4 4 4 6
Wind_Direction
252 207 196 183 181 174 185 194 186 191 185 194 192 221 236 181 204 166 193 196 206 194 188 191 185 190 199 207 204 206 238 239 220 284 318 299 293 294 324 317 304 276 47
269 259 247 200 200 181 197 193 192 194 199 194 192 202 172 164 182 183 189 198 183 190 185 181 191 192 178 182 172 189 250 216 192 236 319 320 327 347 7 15 26 57 68
220 233 229 217 256 248 198 203 202 191 193 203 184 121 61 87 187 154 167 153 161 127 118 203 225 178 136 171 131 153 212 279 2 55 186 303 249 317 338 38 48 62 61
237 246 228 214 221 228 242 241 209 203 215 206 198 183 211 186 187 174 159 172 155 148 138 133 117 151 219 133 130 117 111 141 243 342 234 186 199 247 313 21 52 56 61
217 228 228 223 218 223 216 214 243 215 193 194 214 208 212 233 112 163 155 59 35 26 74 115 134 150 188 123 106 102 128 194 186 195 267 304 258 225 212 276 204 73 57
220 236 239 245 249 237 215 189 207 233 199 200 205 205 223 181 159 161 143 121 357 49 47 75 94 89 83 83 91 88 64 293 283 256 227 206 207 236 199 230 256 168 127
221 225 239 242 244 223 206 191 180 212 180 220 189 186 209 185 156 146 118 145 135 148 109 85 89 78 72 53 51 44 24 281 261 274 267 224 216 248 259 222 266 228 151
249 243 242 242 239 237 213 191 176 183 181 169 190 151 148 144 149 141 123 121 68 34 80 91 80 56 63 50 33 43 331 332 301 282 265 279 247 219 251 259 257 254 163
17 335 313 250 236 221 214 202 161 138 167 163 147 167 179 143 148 119 120 162 113 145 127 130 121 102 68 33 47 24 316 312 288 285 284 264 269 272 262 267 242 255 256
10 352 341 320 261 224 172 134 141 158 157 153 140 139 136 153 158 121 122 120 126 129 144 104 99 124 105 66 31 299 286 289 292 278 301 292 317 320 323 288 274 255 259
336 322 324 342 150 142 148 144 152 147 153 143 121 123 126 147 169 148 151 146 137 161 150 102 101 125 96 56 341 302 301 300 302 274 237 209 47 308 330 326 324 304 331
332 326 335 348 22 35 126 145 143 150 154 147 132 129 112 56 358 263 157 162 136 134 118 141 160 167 115 77 2 323 309 285 280 273 201 180 95 62 16 340 29 52 346
318 326 338 338 327 258 182 177 173 168 154 144 135 124 116 105 87 68 82 65 64 88 135 136 127 126 69 43 1 318 304 360 49 350 255 145 118 134 57 40 36 100 155
272 280 286 275 284 255 223 210 204 179 171 158 153 153 157 145 161 146 107 114 123 116 102 123 135 115 116 208 286 233 135 104 92 70 70 70 99 180 192 182 143 227 172
276 258 265 286 285 270 248 228 214 188 178 169 171 173 161 150 139 125 113 105 108 134 160 136 111 143 180 223 235 256 223 200 136 74 72 70 85 98 48 212 206 161 149
289 277 269 255 252 238 235 220 210 198 176 181 185 169 154 147 149 137 126 125 131 164 145 172 170 175 214 238 248 224 209 172 162 153 92 63 51 71 107 123 142 169 166
291 291 284 285 270 250 230 220 201 173 183 180 176 167 159 154 152 138 139 155 168 154 172 198 171 194 217 241 250 224 172 166 171 161 148 114 61 71 51 63 63 70 78
276 289 294 286 283 276 241 225 175 181 182 180 178 161 157 156 148 147 155 158 157 182 177 191 197 191 216 230 274 127 108 122 127 153 167 159 173 192 146 113 76 44 58
264 258 264 273 272 272 258 206 182 182 175 185 183 169 160 156 157 162 161 161 165 179 186 181 193 201 216 221 198 136 149 165 181 184 187 190 197 224 178 153 131 104 40
260 267 262 264 269 274 263 196 197 181 193 188 182 165 164 164 169 167 165 161 163 161 157 228 212 212 215 224 217 158 154 176 192 219 230 219 203 221 181 167 172 161 176
266 260 275 271 272 285 272 221 189 198 204 159 154 161 162 165 165 153 146 156 150 138 182 204 210 213 196 218 217 193 176 186 192 204 220 244 212 207 199 180 185 198 156
283 272 271 278 292 296 250 229 207 201 146 153 156 160 159 158 154 152 146 155 157 168 185 207 206 211 202 214 226 208 204 205 190 208 211 228 229 208 208 184 209 184 144
274 264 258 278 287 306 266 222 199 151 144 150 157 155 148 153 153 151 154 145 172 171 191 205 215 210 197 200 225 232 227 218 202 213 219 213 224 219 223 199 207 191 151
278 249 261 266 273 298 295 221 163 152 142 140 137 141 147 146 152 149 155 162 175 182 196 208 215 209 190 198 202 237 248 233 214 207 232 208 206 206 193 222 225 163 176
294 234 231 246 251 250 290 139 132 125 123 125 137 142 139 158 155 166 175 184 192 190 195 210 205 194 211 218 207 199 200 208 202 162 156 166 179 190 195 209 221 204 203
286 227 219 226 247 207 152 154 132 128 129 130 139 153 149 152 165 170 169 211 212 215 223 217 200 218 232 228 218 216 216 218 214 172 186 195 201 210 206 209 210 201 216